Regional Weather Roundup
Issued by NWS Northern Indiana

Home | Current Version | Previous Version | Text Only | Print | Product List | Glossary On
Versions: 1 2 3 4 5 6 7 8 9 10 11 12 13 14 15 16 17 18 19 20 21 22 23 24 25 26 27 28 29 30 31 32 33 34 35 36 37 38 39 40 41 42 43 44 45 46 47 48 49 50
192
ASUS43 KIWX 262010
RWRIWX

KIWX WEATHER ROUNDUP
NATIONAL WEATHER SERVICE NORTHERN INDIANA
400 PM EDT MON JUN 26 2017

NOTE: "FAIR" INDICATES FEW OR NO CLOUDS BELOW 12,000 FEET WITH NO
SIGNIFICANT WEATHER AND/OR OBSTRUCTIONS TO VISIBILITY.

* THESE STATIONS ARE NOT UNDER NWS QUALITY CONTROL. THEY ALSO MAY NOT
  REPORT WEATHER SUCH AS PRECIPITATION OR FOG.

INZ001>027-262100-
NORTHERN INDIANA

CITY           SKY/WX    TMP DP  RH WIND       PRES   REMARKS
GARY*          PTSUNNY   73  36  25 W14G31    30.05F
VALPARAISO     PTSUNNY   69  45  41 W8        30.05F
MICHIGAN CITY* MOSUNNY   70  46  43 N9        30.05F
LAPORTE*       LGT RAIN  63  47  56 W6        30.05F
KNOX*          CLOUDY    64  36  34 N9        30.04F
SOUTH BEND     CLOUDY    68  47  46 W8        30.05S
ELKHART*       PTSUNNY   72  43  35 NW17      30.04F
GOSHEN         CLOUDY    67  42  40 W14       30.04F
MONTICELLO*    PTSUNNY   71  44  38 W15G25    30.07F
LOGANSPORT*    MOSUNNY   70  46  43 W17G28    30.09S
ROCHESTER*     MOSUNNY   73  43  33 SW21G29   30.05F
WARSAW*        LGT RAIN  63  52  67 W6        30.05F
AUBURN*        PTSUNNY   70  43  37 W7G17     30.05F
FORT WAYNE     PTSUNNY   72  45  37 W17G24    30.07F
HUNTINGTON*    CLOUDY    69  46  43 SW9       30.07S
PERU/GRISSOM   PTSUNNY   69  47  45 W20       30.07F
MARION*        CLOUDY    68  43  40 W16G22    30.10F

$$
INZ028>050-262100-
CENTRAL INDIANA

CITY           SKY/WX    TMP DP  RH WIND       PRES   REMARKS
LAFAYETTE      CLOUDY    67  48  50 W15G23    30.09F
KOKOMO*        CLOUDY    70  47  43 W22       30.10F
MUNCIE*        CLOUDY    69  47  45 W13       30.10S
INDIANAPOLIS   CLOUDY    70  47  43 W18G25    30.12S

$$
MIZ043>046-050>051-056>058-064>065-071>073-077>080-262100-
SOUTHWEST LOWER MICHIGAN

CITY           SKY/WX    TMP DP  RH WIND       PRES   REMARKS
BATTLE CREEK   PTSUNNY   66  44  45 W13       30.03F
BENTON HARBOR  MOSUNNY   69  46  43 W13       30.04F
COLDWATER*     PTSUNNY   69  38  32 W15G28    30.02F
HILLSDALE*     MOSUNNY   68  43  40 W12G23    30.02F
HOLLAND        MOSUNNY   67  49  52 W13G20    30.04F
GRAND RAPIDS   PTSUNNY   64  44  48 W18       30.02F
KALAMAZOO      PTSUNNY   69  39  33 W14G20    30.04F
STURGIS*       CLOUDY    69  43  39 NW10G21   30.03S
THREE RIVERS*  FAIR      68  41  37 NW17G25   30.04S

$$
OHZ001>008-015>018-024>025-262100-
NORTHWEST OHIO

CITY           SKY/WX    TMP DP  RH WIND       PRES   REMARKS
WAUSEON*       FAIR      70  41  35 W15       30.02F
DEFIANCE       CLOUDY    67  43  41 VRB7      30.04F
FINDLAY        PTSUNNY   71  43  36 W14G23    30.03F
TOLEDO EXPRESS LGT RAIN  67  46  47 W10       30.02F
TOLEDO METCALF PTSUNNY   71  45  39 W14G24    30.03F
LIMA           CLOUDY    69  45  41 W18       30.06F

$$
AND FOR LAKE MICHIGAN COASTAL AND OPEN LAKE BUOY OBSERVATIONS

STATION/POSITION TEMP    WIND        PRES    VSBY  WAVE
                 AIR SEA DIR/SP/G                  HT/PER
                 (F)     (DEG/KT/KT) (MB)    (MI)  (FT/S)
CALUMET HARBOR    70     290/ 12/ 16 1016.7F
MICHIGAN CITY     68     330/  7/  8   N/A
BURNS HARBOR      67      40/  5/  7 1017.9F
SOUTH LAKE BUOY   61 62  350/ 10/ 12 1017.3F         1/ 4
4 MI NW BRIDGMAN  64 69  320/  8/ 12 1017.4          2/ 4
MICHIGAN CITY     65 67  350/  8/ 12   N/A           2/ 3

$$
&&




USA.gov is the U.S. government's official web portal to all federal, state and local government web resources and services.